STARLINK-2609, 48373

Orbit data source: Space-Track

STARLINK-2609, 48373 is a payload satellite owned by SpaceX/Seattle (US) in LEO that was launched on Tue, 04 May 2021 UTC via an FALCON 9 launch vehicle from the Air Force Eastern Test Range (AFETR). Payload-class satellites include a variety of spacecraft equipped with specific instruments for various scientific and technological missions. These include communications satellites like Starlink; space stations such as the ISS; scientific satellites like the Hubble; Earth observation satellites from companies like Planet Labs, Umbra, and HawkEye 360; GPS; miniature CubeSats for education and research; and military/defense satellites.

Loading next visibility...
Identifier
48373, 2021-038W
Orbit
LEO
Country
Flag of USUS
Related business
Manufacturer
SpaceX/Seattle
Mission
Operational Commercial Communications
Bus & Motor
STARLINK, Unknown motor
Mass
260 kg wet, ~248 kg dry
Launch date (UTC)
2021-05-04 (5 years ago)
Launch vehicle
FALCON 9
Launch site
Air Force Eastern Test Range (AFETR)
Object type
Payload
Rocket body
Debris
Shape & HBR
Box + 1 Pan, 10.1 m
Radar Cross Section
13.562 m², Large (>1 m²)

Expand to show TLE details & history
Last TLE update: 2 days ago

TLE from 2 days ago
0 STARLINK-2609
1 48373U 21038W   26171.33360002 -.00000193  00000-0  55336-5 0  9994
2 48373  53.1579 227.9643 0001190  76.3705 283.7428 15.31698132282981
Epoch: 2026-06-20T08:00Z
TLE epoch observation values (Epoch: 2026-06-20T08:00:23.041Z)
Latitude
-0.0001°
Longitude
-160.6815°
Altitude
471.452 km
Speed
7.632 km/s
True Right ascension
15h 11m 51s
True Declination
0° 00' 00"
Sunlit
Object was in full shadow at epoch
Visualization orbit readout
Latitude
Unknown
Longitude
Unknown
Altitude
Unknown
Speed
Unknown
Apparent Right ascension
Unknown
Apparent Declination
Unknown
Sunlit
N/A
Visualization observer readout
Local Sidereal Time
21:34:09
Azimuth
Unknown
Elevation
Unknown
Doppler factor
Unknown
Orbital elements
Apogee altitude
471.818 km
Perigee altitude
470.187 km
Semi-major axis
6,849.139 km
Eccentricity
0.00012
Inclination
53.1579°
RAAN
227.9643°
Arg. of periapsis
76.3705°
True anomaly
283.72955°
Mean anomaly
283.7428°
Eccentric anomaly
283.73618°
Mean motion
3.82903 °/min
Orbital period
94.02 mins
BSTAR
0.0000055336
Loading maneuver chart data...
Computing Atmospheric mass density...

Documentation

Showing up to 5 results
|